| time (UTC) | temp F | wind direction | speed MPH | gust MPH | rain 1hr in | rain 24hr in | rain mn in | humidity % | barometer mb |
| 20260904142039 | 89 | 190 | 0.0 | 7.0 | 0.00 | 0.00 | 0.00 | 52 | 1016.5 |
| 20260904141539 | 89 | 298 | 0.0 | 3.0 | 0.00 | 0.00 | 0.00 | 50 | 1016.5 |
| 20260904141039 | 90 | 221 | 3.0 | 9.0 | 0.00 | 0.00 | 0.00 | 48 | 1016.5 |
| 20260904140539 | 90 | 234 | 6.0 | 7.0 | 0.00 | 0.00 | 0.00 | 51 | 1016.6 |
| 20260904140039 | 90 | 163 | 0.0 | 6.0 | 0.00 | 0.00 | 0.00 | 49 | 1016.6 |
| 20260904135539 | 90 | 239 | 0.0 | 5.0 | 0.00 | 0.00 | 0.00 | 47 | 1016.6 |
| 20260904135039 | 90 | 40 | 0.0 | 8.0 | 0.00 | 0.00 | 0.00 | 45 | 1016.5 |
| 20260904134539 | 90 | 257 | 1.0 | 9.0 | 0.00 | 0.00 | 0.00 | 41 | 1016.6 |
| 20260904134039 | 90 | 274 | 4.0 | 11.0 | 0.00 | 0.00 | 0.00 | 43 | 1016.5 |
| 20260904133542 | 90 | 215 | 0.0 | 8.0 | 0.00 | 0.00 | 0.00 | 45 | 1016.5 |
| 20260904133042 | 90 | 219 | 3.0 | 10.0 | 0.00 | 0.00 | 0.00 | 43 | 1016.5 |
| 20260904132539 | 90 | 207 | 1.0 | 8.0 | 0.00 | 0.00 | 0.00 | 46 | 1016.5 |
| 20260904132039 | 90 | 168 | 0.0 | 9.0 | 0.00 | 0.00 | 0.00 | 45 | 1016.6 |
| 20260904131539 | 90 | 163 | 1.0 | 4.0 | 0.00 | 0.00 | 0.00 | 47 | 1016.6 |
| 20260904131039 | 91 | 95 | 2.0 | 10.0 | 0.00 | 0.00 | 0.00 | 47 | 1016.6 |
| 20260904130539 | 90 | 302 | 1.0 | 7.0 | 0.00 | 0.00 | 0.00 | 46 | 1016.6 |
| 20260904130039 | 90 | 250 | 3.0 | 10.0 | 0.00 | 0.00 | 0.00 | 46 | 1016.7 |
| 20260904125539 | 90 | 180 | 3.0 | 12.0 | 0.00 | 0.00 | 0.00 | 40 | 1016.7 |
| 20260904125042 | 90 | 294 | 0.0 | 7.0 | 0.00 | 0.00 | 0.00 | 44 | 1016.7 |
| 20260904124539 | 90 | 187 | 2.0 | 7.0 | 0.00 | 0.00 | 0.00 | 45 | 1016.7 |
| 20260904124039 | 90 | 323 | 2.0 | 11.0 | 0.00 | 0.00 | 0.00 | 42 | 1016.7 |
| 20260904123539 | 91 | 227 | 0.0 | 9.0 | 0.00 | 0.00 | 0.00 | 39 | 1016.9 |
| 20260904123039 | 91 | 159 | 4.0 | 5.0 | 0.00 | 0.00 | 0.00 | 44 | 1016.8 |
| 20260904122539 | 90 | 176 | 0.0 | 3.0 | 0.00 | 0.00 | 0.00 | 45 | 1016.9 |
| 20260904122039 | 90 | 196 | 0.0 | 9.0 | 0.00 | 0.00 | 0.00 | 42 | 1016.9 |
| 20260904121539 | 91 | 227 | 4.0 | 10.0 | 0.00 | 0.00 | 0.00 | 39 | 1017.0 |
| 20260904121039 | 91 | 179 | 0.0 | 7.0 | 0.00 | 0.00 | 0.00 | 42 | 1017.0 |
| 20260904120539 | 91 | 211 | 0.0 | 8.0 | 0.00 | 0.00 | 0.00 | 43 | 1017.0 |
| 20260904120039 | 91 | 220 | 0.0 | 10.0 | 0.00 | 0.00 | 0.00 | 40 | 1017.0 |
| 20260904115539 | 91 | 237 | 0.0 | 10.0 | 0.00 | 0.00 | 0.00 | 38 | 1017.1 |
| 20260904115039 | 91 | 229 | 3.0 | 4.0 | 0.00 | 0.00 | 0.00 | 40 | 1017.0 |
| 20260904114539 | 90 | 219 | 0.0 | 10.0 | 0.00 | 0.00 | 0.00 | 43 | 1017.1 |
| 20260904114042 | 90 | 200 | 3.0 | 8.0 | 0.00 | 0.00 | 0.00 | 40 | 1017.0 |
| 20260904113539 | 90 | 163 | 2.0 | 9.0 | 0.00 | 0.00 | 0.00 | 42 | 1017.0 |
| 20260904113039 | 90 | 166 | 3.0 | 10.0 | 0.00 | 0.00 | 0.00 | 43 | 1017.2 |
| 20260904112539 | 90 | 162 | 0.0 | 5.0 | 0.00 | 0.00 | 0.00 | 42 | 1017.2 |
| 20260904112039 | 90 | 188 | 1.0 | 9.0 | 0.00 | 0.00 | 0.00 | 42 | 1017.2 |
| 20260904111542 | 90 | 159 | 5.0 | 9.0 | 0.00 | 0.00 | 0.00 | 41 | 1017.2 |
| 20260904111039 | 90 | 175 | 1.0 | 11.0 | 0.00 | 0.00 | 0.00 | 41 | 1017.1 |
| 20260904110539 | 90 | 205 | 3.0 | 12.0 | 0.00 | 0.00 | 0.00 | 41 | 1017.3 |
| 20260904110039 | 90 | 186 | 1.0 | 7.0 | 0.00 | 0.00 | 0.00 | 40 | 1017.2 |
| 20260904105542 | 90 | 232 | 2.0 | 9.0 | 0.00 | 0.00 | 0.00 | 41 | 1017.2 |
| 20260904105042 | 90 | 192 | 3.0 | 10.0 | 0.00 | 0.00 | 0.00 | 42 | 1017.2 |
| 20260904104542 | 90 | 165 | 4.0 | 6.0 | 0.00 | 0.00 | 0.00 | 42 | 1017.1 |
| 20260904104039 | 90 | 233 | 1.0 | 9.0 | 0.00 | 0.00 | 0.00 | 41 | 1017.1 |
| 20260904103542 | 90 | 198 | 0.0 | 8.0 | 0.00 | 0.00 | 0.00 | 40 | 1017.1 |
| 20260904103039 | 90 | 149 | 2.0 | 8.0 | 0.00 | 0.00 | 0.00 | 39 | 1017.1 |
| 20260904102539 | 91 | 209 | 4.0 | 14.0 | 0.00 | 0.00 | 0.00 | 38 | 1017.2 |
| 20260904102039 | 91 | 170 | 1.0 | 8.0 | 0.00 | 0.00 | 0.00 | 38 | 1017.1 |
| 20260904101539 | 90 | 194 | 0.0 | 15.0 | 0.00 | 0.00 | 0.00 | 37 | 1017.2 |
| 20260904101039 | 91 | 215 | 3.0 | 8.0 | 0.00 | 0.00 | 0.00 | 37 | 1017.2 |
| 20260904100539 | 90 | 212 | 1.0 | 9.0 | 0.00 | 0.00 | 0.00 | 37 | 1017.2 |
| 20260904100042 | 90 | 131 | 2.0 | 10.0 | 0.00 | 0.00 | 0.00 | 38 | 1017.2 |
| 20260904095539 | 91 | 212 | 1.0 | 9.0 | 0.00 | 0.00 | 0.00 | 38 | 1017.2 |
| 20260904095039 | 90 | 207 | 2.0 | 10.0 | 0.00 | 0.00 | 0.00 | 38 | 1017.2 |
| 20260904094539 | 90 | 209 | 2.0 | 8.0 | 0.00 | 0.00 | 0.00 | 37 | 1017.2 |
| 20260904094039 | 91 | 225 | 2.0 | 6.0 | 0.00 | 0.00 | 0.00 | 37 | 1017.2 |
| 20260904093539 | 91 | 104 | 0.0 | 8.0 | 0.00 | 0.00 | 0.00 | 38 | 1017.2 |
| 20260904093039 | 91 | 181 | 1.0 | 7.0 | 0.00 | 0.00 | 0.00 | 39 | 1017.2 |
| 20260904092539 | 91 | 192 | 0.0 | 9.0 | 0.00 | 0.00 | 0.00 | 39 | 1017.1 |
| 20260904092039 | 90 | 149 | 0.0 | 5.0 | 0.00 | 0.00 | 0.00 | 39 | 1017.1 |
| 20260904091539 | 90 | 156 | 3.0 | 11.0 | 0.00 | 0.00 | 0.00 | 40 | 1017.1 |
| 20260904091039 | 90 | 229 | 0.0 | 8.0 | 0.00 | 0.00 | 0.00 | 40 | 1017.2 |
| 20260904090539 | 90 | 157 | 7.0 | 10.0 | 0.00 | 0.00 | 0.00 | 37 | 1017.2 |
| 20260904090039 | 89 | 245 | 0.0 | 7.0 | 0.00 | 0.00 | 0.00 | 38 | 1017.1 |
| 20260904085539 | 89 | 196 | 0.0 | 7.0 | 0.00 | 0.00 | 0.00 | 39 | 1017.1 |
| 20260904085039 | 89 | 136 | 5.0 | 10.0 | 0.00 | 0.00 | 0.00 | 40 | 1017.1 |
| 20260904084539 | 88 | 182 | 6.0 | 8.0 | 0.00 | 0.00 | 0.00 | 41 | 1017.1 |
| 20260904084039 | 88 | 166 | 3.0 | 9.0 | 0.00 | 0.00 | 0.00 | 42 | 1017.0 |
| 20260904083539 | 88 | 137 | 8.0 | 9.0 | 0.00 | 0.00 | 0.00 | 41 | 1017.0 |
| 20260904083039 | 88 | 148 | 3.0 | 10.0 | 0.00 | 0.00 | 0.00 | 42 | 1017.0 |
| 20260904082542 | 88 | 97 | 1.0 | 13.0 | 0.00 | 0.00 | 0.00 | 41 | 1017.0 |
| 20260904082039 | 88 | 136 | 10.0 | 10.0 | 0.00 | 0.00 | 0.00 | 42 | 1016.9 |
| 20260904081539 | 88 | 164 | 5.0 | 9.0 | 0.00 | 0.00 | 0.00 | 41 | 1016.9 |
| 20260904081039 | 87 | 131 | 8.0 | 9.0 | 0.00 | 0.00 | 0.00 | 42 | 1016.9 |
| 20260904080539 | 87 | 198 | 6.0 | 8.0 | 0.00 | 0.00 | 0.00 | 42 | 1016.9 |
| 20260904080039 | 87 | 157 | 6.0 | 8.0 | 0.00 | 0.00 | 0.00 | 42 | 1016.8 |
| 20260904075539 | 87 | 157 | 3.0 | 8.0 | 0.00 | 0.00 | 0.00 | 42 | 1016.7 |
| 20260904075039 | 87 | 157 | 3.0 | 8.0 | 0.00 | 0.00 | 0.00 | 42 | 1016.7 |
| 20260904074539 | 86 | 144 | 3.0 | 10.0 | 0.00 | 0.00 | 0.00 | 44 | 1016.7 |
| 20260904074039 | 86 | 133 | 8.0 | 9.0 | 0.00 | 0.00 | 0.00 | 46 | 1016.6 |
| 20260904073539 | 85 | 126 | 7.0 | 9.0 | 0.00 | 0.00 | 0.00 | 48 | 1016.6 |
| 20260904073042 | 85 | 110 | 7.0 | 10.0 | 0.00 | 0.00 | 0.00 | 49 | 1016.6 |
| 20260904072539 | 85 | 169 | 5.0 | 5.0 | 0.00 | 0.00 | 0.00 | 51 | 1016.6 |
| 20260904072039 | 85 | 171 | 0.0 | 3.0 | 0.00 | 0.00 | 0.00 | 51 | 1016.5 |
| 20260904071539 | 84 | 324 | 0.0 | 2.0 | 0.00 | 0.00 | 0.00 | 53 | 1016.5 |
| 20260904071039 | 84 | 324 | 1.0 | 2.0 | 0.00 | 0.00 | 0.00 | 53 | 1016.4 |
| 20260904070539 | 83 | 324 | 0.0 | 1.0 | 0.00 | 0.00 | 0.00 | 54 | 1016.4 |
| 20260904070039 | 83 | 324 | 0.0 | 2.0 | 0.00 | 0.00 | 0.00 | 55 | 1016.4 |
| 20260904065539 | 82 | 324 | 1.0 | 3.0 | 0.00 | 0.00 | 0.00 | 55 | 1016.3 |
| 20260904065039 | 82 | 324 | 0.0 | 3.0 | 0.00 | 0.00 | 0.00 | 55 | 1016.2 |
| 20260904064542 | 81 | 324 | 0.0 | 2.0 | 0.00 | 0.00 | 0.00 | 56 | 1016.2 |
| 20260904064039 | 81 | 324 | 0.0 | 2.0 | 0.00 | 0.00 | 0.00 | 57 | 1016.1 |
| 20260904063539 | 80 | 324 | 0.0 | 4.0 | 0.00 | 0.00 | 0.00 | 58 | 1016.1 |
| 20260904063039 | 80 | 324 | 2.0 | 5.0 | 0.00 | 0.00 | 0.00 | 58 | 1016.0 |
| 20260904062539 | 79 | 355 | 2.0 | 6.0 | 0.00 | 0.00 | 0.00 | 58 | 1016.0 |
| 20260904062042 | 79 | 333 | 6.0 | 5.0 | 0.00 | 0.00 | 0.00 | 59 | 1015.9 |
| 20260904061539 | 79 | 297 | 4.0 | 6.0 | 0.00 | 0.00 | 0.00 | 59 | 1015.9 |
| 20260904061042 | 78 | 331 | 3.0 | 6.0 | 0.00 | 0.00 | 0.00 | 59 | 1015.9 |
| 20260904060539 | 78 | 324 | 5.0 | 6.0 | 0.00 | 0.00 | 0.00 | 59 | 1015.9 |
| 20260904060039 | 78 | 326 | 3.0 | 5.0 | 0.00 | 0.00 | 0.00 | 59 | 1015.9 |
| 20260904055539 | 78 | 321 | 5.0 | 5.0 | 0.00 | 0.00 | 0.00 | 60 | 1015.8 |
| 20260904055039 | 78 | 333 | 4.0 | 6.0 | 0.00 | 0.00 | 0.00 | 60 | 1015.8 |
| 20260904054541 | 78 | 348 | 4.0 | 5.0 | 0.00 | 0.00 | 0.00 | 60 | 1015.8 |
| 20260904054039 | 77 | 329 | 5.0 | 8.0 | 0.00 | 0.00 | 0.00 | 60 | 1015.7 |
| 20260904053539 | 77 | 315 | 2.0 | 5.0 | 0.00 | 0.00 | 0.00 | 60 | 1015.7 |
| 20260904053042 | 77 | 336 | 4.0 | 6.0 | 0.00 | 0.00 | 0.00 | 60 | 1015.7 |
| 20260904052539 | 77 | 0 | 1.0 | 10.0 | 0.00 | 0.00 | 0.00 | 60 | 1015.7 |
| 20260904052039 | 77 | 340 | 8.0 | 9.0 | 0.00 | 0.00 | 0.00 | 61 | 1015.6 |
| 20260904051539 | 76 | 329 | 3.0 | 5.0 | 0.00 | 0.00 | 0.00 | 61 | 1015.6 |
| 20260904051039 | 76 | 348 | 4.0 | 8.0 | 0.00 | 0.00 | 0.00 | 61 | 1015.6 |
| 20260904050539 | 76 | 333 | 2.0 | 8.0 | 0.00 | 0.00 | 0.00 | 62 | 1015.7 |
| 20260904050039 | 75 | 14 | 4.0 | 6.0 | 0.00 | 0.00 | 0.00 | 63 | 1015.6 |
| 20260904045539 | 75 | 331 | 2.0 | 6.0 | 0.00 | 0.00 | 0.00 | 63 | 1015.5 |
| 20260904045039 | 75 | 0 | 2.0 | 6.0 | 0.00 | 0.00 | 0.00 | 64 | 1015.4 |
| 20260904044542 | 75 | 355 | 5.0 | 10.0 | 0.00 | 0.00 | 0.00 | 65 | 1015.5 |
| 20260904044039 | 74 | 355 | 2.0 | 8.0 | 0.00 | 0.00 | 0.00 | 66 | 1015.5 |
| 20260904043539 | 74 | 338 | 2.0 | 8.0 | 0.00 | 0.00 | 0.00 | 66 | 1015.4 |
| 20260904043039 | 74 | 332 | 3.0 | 8.0 | 0.00 | 0.00 | 0.00 | 66 | 1015.4 |
| 20260904042539 | 74 | 341 | 5.0 | 8.0 | 0.00 | 0.00 | 0.00 | 66 | 1015.5 |
| 20260904042039 | 74 | 327 | 5.0 | 6.0 | 0.00 | 0.00 | 0.00 | 66 | 1015.4 |
| 20260904041539 | 74 | 328 | 2.0 | 5.0 | 0.00 | 0.00 | 0.00 | 66 | 1015.5 |
| 20260904041039 | 74 | 316 | 2.0 | 5.0 | 0.00 | 0.00 | 0.00 | 66 | 1015.4 |
| 20260904040539 | 74 | 327 | 2.0 | 3.0 | 0.00 | 0.00 | 0.00 | 66 | 1015.3 |
| 20260904040039 | 74 | 327 | 1.0 | 3.0 | 0.00 | 0.00 | 0.00 | 66 | 1015.3 |
| 20260904035539 | 74 | 327 | 1.0 | 2.0 | 0.00 | 0.00 | 0.00 | 66 | 1015.4 |
| 20260904035042 | 74 | 327 | 0.0 | 1.0 | 0.00 | 0.00 | 0.00 | 66 | 1015.4 |
| 20260904034539 | 74 | 327 | 0.0 | 1.0 | 0.00 | 0.00 | 0.00 | 66 | 1015.4 |
| 20260904034039 | 74 | 327 | 1.0 | 3.0 | 0.00 | 0.00 | 0.00 | 66 | 1015.4 |
| 20260904033539 | 74 | 327 | 2.0 | 4.0 | 0.00 | 0.00 | 0.00 | 65 | 1015.5 |
| 20260904033039 | 75 | 329 | 3.0 | 5.0 | 0.00 | 0.00 | 0.00 | 65 | 1015.4 |
| 20260904032539 | 75 | 329 | 2.0 | 4.0 | 0.00 | 0.00 | 0.00 | 65 | 1015.5 |
| 20260904032042 | 75 | 329 | 3.0 | 4.0 | 0.00 | 0.00 | 0.00 | 65 | 1015.4 |
| 20260904031540 | 75 | 328 | 1.0 | 2.0 | 0.00 | 0.00 | 0.00 | 65 | 1015.4 |
| 20260904031039 | 75 | 328 | 0.0 | 2.0 | 0.00 | 0.00 | 0.00 | 65 | 1015.3 |
| 20260904030539 | 75 | 328 | 1.0 | 2.0 | 0.00 | 0.00 | 0.00 | 65 | 1015.3 |
| 20260904030042 | 75 | 328 | 0.0 | 0.0 | 0.00 | 0.00 | 0.00 | 64 | 1015.3 |
| 20260904025539 | 75 | 328 | 0.0 | 1.0 | 0.00 | 0.00 | 0.00 | 64 | 1015.3 |
| 20260904025042 | 75 | 328 | 0.0 | 2.0 | 0.00 | 0.00 | 0.00 | 64 | 1015.3 |
| 20260904024539 | 76 | 328 | 0.0 | 2.0 | 0.00 | 0.00 | 0.00 | 64 | 1015.3 |
| 20260904024042 | 76 | 328 | 2.0 | 3.0 | 0.00 | 0.00 | 0.00 | 63 | 1015.4 |
| 20260904023539 | 76 | 328 | 3.0 | 3.0 | 0.00 | 0.00 | 0.00 | 63 | 1015.4 |
| 20260904023043 | 76 | 328 | 1.0 | 2.0 | 0.00 | 0.00 | 0.00 | 62 | 1015.4 |
| 20260904022539 | 76 | 328 | 2.0 | 3.0 | 0.00 | 0.00 | 0.00 | 62 | 1015.4 |
| 20260904022040 | 76 | 328 | 0.0 | 3.0 | 0.00 | 0.00 | 0.00 | 62 | 1015.4 |
| 20260904021539 | 77 | 328 | 1.0 | 3.0 | 0.00 | 0.00 | 0.00 | 61 | 1015.4 |
| 20260904021039 | 77 | 328 | 1.0 | 3.0 | 0.00 | 0.00 | 0.00 | 61 | 1015.4 |
| 20260904020539 | 77 | 327 | 2.0 | 4.0 | 0.00 | 0.00 | 0.00 | 60 | 1015.4 |
| 20260904020039 | 77 | 327 | 1.0 | 4.0 | 0.00 | 0.00 | 0.00 | 60 | 1015.4 |
| 20260904015542 | 77 | 327 | 2.0 | 4.0 | 0.00 | 0.00 | 0.00 | 60 | 1015.3 |
| 20260904015042 | 77 | 330 | 1.0 | 4.0 | 0.00 | 0.00 | 0.00 | 59 | 1015.2 |
| 20260904014539 | 78 | 322 | 4.0 | 6.0 | 0.00 | 0.00 | 0.00 | 58 | 1015.2 |
| 20260904014039 | 78 | 320 | 1.0 | 5.0 | 0.00 | 0.00 | 0.00 | 57 | 1015.2 |
| 20260904013539 | 78 | 321 | 4.0 | 6.0 | 0.00 | 0.00 | 0.00 | 57 | 1015.1 |
| 20260904013039 | 78 | 336 | 3.0 | 6.0 | 0.00 | 0.00 | 0.00 | 56 | 1015.1 |
| 20260904012539 | 78 | 348 | 2.0 | 3.0 | 0.00 | 0.00 | 0.00 | 57 | 1015.1 |
| 20260904012039 | 78 | 349 | 3.0 | 3.0 | 0.00 | 0.00 | 0.00 | 57 | 1015.0 |
| 20260904011539 | 78 | 13 | 3.0 | 6.0 | 0.00 | 0.00 | 0.00 | 59 | 1015.0 |
| 20260904011042 | 78 | 342 | 2.0 | 6.0 | 0.00 | 0.00 | 0.00 | 60 | 1015.0 |
| 20260904010542 | 78 | 325 | 5.0 | 6.0 | 0.00 | 0.00 | 0.00 | 61 | 1015.0 |
| 20260904010039 | 78 | 335 | 2.0 | 4.0 | 0.00 | 0.00 | 0.00 | 62 | 1015.0 |
| 20260904005539 | 77 | 337 | 2.0 | 5.0 | 0.00 | 0.00 | 0.00 | 63 | 1015.0 |
| 20260904005039 | 77 | 335 | 0.0 | 0.0 | 0.00 | 0.00 | 0.00 | 64 | 1015.1 |
| 20260904004539 | 77 | 335 | 0.0 | 3.0 | 0.00 | 0.00 | 0.00 | 64 | 1015.2 |
| 20260904004042 | 77 | 335 | 2.0 | 3.0 | 0.00 | 0.00 | 0.00 | 64 | 1015.2 |
| 20260904003542 | 78 | 334 | 1.0 | 2.0 | 0.00 | 0.00 | 0.00 | 64 | 1015.2 |
| 20260904003039 | 78 | 334 | 1.0 | 4.0 | 0.00 | 0.00 | 0.00 | 64 | 1015.2 |
| 20260904002539 | 78 | 313 | 3.0 | 4.0 | 0.00 | 0.00 | 0.00 | 64 | 1015.2 |
| 20260904002039 | 78 | 335 | 2.0 | 4.0 | 0.00 | 0.00 | 0.00 | 64 | 1015.3 |
| 20260904001539 | 78 | 355 | 4.0 | 5.0 | 0.00 | 0.00 | 0.00 | 64 | 1015.3 |
| 20260904001039 | 78 | 338 | 3.0 | 6.0 | 0.00 | 0.00 | 0.00 | 64 | 1015.3 |
| 20260904000539 | 79 | 325 | 0.0 | 4.0 | 0.00 | 0.00 | 0.00 | 64 | 1015.4 |
| 20260904000039 | 79 | 316 | 0.0 | 4.0 | 0.00 | 0.00 | 0.00 | 63 | 1015.3 |
| 20260903235539 | 79 | 317 | 1.0 | 3.0 | 0.00 | 0.00 | 0.00 | 62 | 1015.4 |
| 20260903235042 | 79 | 329 | 0.0 | 3.0 | 0.00 | 0.00 | 0.00 | 62 | 1015.3 |
| 20260903234539 | 79 | 306 | 0.0 | 1.0 | 0.00 | 0.00 | 0.00 | 62 | 1015.3 |
| 20260903234039 | 79 | 306 | 0.0 | 2.0 | 0.00 | 0.00 | 0.00 | 62 | 1015.3 |
| 20260903233541 | 79 | 304 | 0.0 | 3.0 | 0.00 | 0.00 | 0.00 | 62 | 1015.3 |
| 20260903233039 | 79 | 300 | 0.0 | 2.0 | 0.00 | 0.00 | 0.00 | 62 | 1015.2 |
| 20260903232539 | 79 | 155 | 0.0 | 2.0 | 0.00 | 0.00 | 0.00 | 62 | 1015.1 |
| 20260903232040 | 79 | 154 | 2.0 | 1.0 | 0.00 | 0.00 | 0.00 | 63 | 1015.1 |
| 20260903231542 | 78 | 154 | 1.0 | 2.0 | 0.00 | 0.00 | 0.00 | 62 | 1015.1 |
| 20260903231042 | 78 | 154 | 0.0 | 2.0 | 0.00 | 0.00 | 0.00 | 64 | 1015.1 |
| 20260903230539 | 77 | 154 | 0.0 | 3.0 | 0.00 | 0.00 | 0.00 | 65 | 1015.1 |
| 20260903230039 | 77 | 151 | 1.0 | 2.0 | 0.00 | 0.00 | 0.00 | 66 | 1015.1 |
| 20260903225539 | 77 | 151 | 2.0 | 2.0 | 0.00 | 0.00 | 0.00 | 67 | 1015.1 |
| 20260903225039 | 77 | 151 | 1.0 | 3.0 | 0.00 | 0.00 | 0.00 | 68 | 1015.1 |
| 20260903224539 | 77 | 151 | 2.0 | 7.0 | 0.00 | 0.00 | 0.00 | 67 | 1015.1 |
| 20260903224039 | 79 | 140 | 7.0 | 7.0 | 0.00 | 0.00 | 0.00 | 64 | 1015.1 |
| 20260903223539 | 80 | 32 | 2.0 | 4.0 | 0.00 | 0.00 | 0.00 | 62 | 1015.0 |
| 20260903223039 | 80 | 9 | 0.0 | 5.0 | 0.00 | 0.00 | 0.00 | 62 | 1015.0 |
| 20260903222539 | 80 | 340 | 4.0 | 5.0 | 0.00 | 0.00 | 0.00 | 62 | 1014.9 |
| 20260903222039 | 80 | 317 | 3.0 | 6.0 | 0.00 | 0.00 | 0.00 | 62 | 1014.9 |
| 20260903221539 | 80 | 313 | 5.0 | 6.0 | 0.00 | 0.00 | 0.00 | 62 | 1014.8 |
| 20260903221039 | 80 | 310 | 5.0 | 8.0 | 0.00 | 0.00 | 0.00 | 63 | 1014.7 |
| 20260903220539 | 80 | 355 | 4.0 | 8.0 | 0.00 | 0.00 | 0.00 | 63 | 1014.7 |
| 20260903220042 | 80 | 340 | 3.0 | 8.0 | 0.00 | 0.00 | 0.00 | 63 | 1014.7 |
| 20260903215539 | 79 | 346 | 3.0 | 7.0 | 0.00 | 0.00 | 0.00 | 64 | 1014.7 |
| 20260903215039 | 79 | 329 | 4.0 | 10.0 | 0.00 | 0.00 | 0.00 | 65 | 1014.7 |
| 20260903214539 | 79 | 327 | 3.0 | 10.0 | 0.00 | 0.00 | 0.00 | 65 | 1014.8 |
| 20260903214039 | 79 | 329 | 5.0 | 10.0 | 0.00 | 0.00 | 0.00 | 65 | 1014.8 |
| 20260903213539 | 80 | 325 | 3.0 | 10.0 | 0.00 | 0.00 | 0.00 | 65 | 1014.7 |
| 20260903213039 | 80 | 326 | 6.0 | 6.0 | 0.00 | 0.00 | 0.00 | 65 | 1014.8 |
| 20260903212539 | 80 | 321 | 4.0 | 10.0 | 0.00 | 0.00 | 0.00 | 65 | 1014.7 |
| 20260903212042 | 80 | 303 | 8.0 | 9.0 | 0.00 | 0.00 | 0.00 | 65 | 1014.6 |
| 20260903211539 | 80 | 332 | 3.0 | 9.0 | 0.00 | 0.00 | 0.00 | 65 | 1014.6 |
| 20260903211039 | 80 | 300 | 4.0 | 6.0 | 0.00 | 0.00 | 0.00 | 65 | 1014.7 |
| 20260903210539 | 80 | 328 | 3.0 | 10.0 | 0.00 | 0.00 | 0.00 | 65 | 1014.7 |
| 20260903210039 | 80 | 338 | 8.0 | 8.0 | 0.00 | 0.00 | 0.00 | 66 | 1014.6 |
| 20260903205542 | 80 | 330 | 2.0 | 9.0 | 0.00 | 0.00 | 0.00 | 66 | 1014.6 |
| 20260903205042 | 80 | 306 | 4.0 | 8.0 | 0.00 | 0.00 | 0.00 | 66 | 1014.6 |
| 20260903204542 | 80 | 322 | 4.0 | 8.0 | 0.00 | 0.00 | 0.00 | 66 | 1014.7 |
| 20260903204039 | 80 | 313 | 2.0 | 4.0 | 0.00 | 0.00 | 0.00 | 66 | 1014.7 |
| 20260903203539 | 80 | 297 | 0.0 | 5.0 | 0.00 | 0.00 | 0.00 | 66 | 1014.7 |
| 20260903203039 | 80 | 313 | 4.0 | 8.0 | 0.00 | 0.00 | 0.00 | 66 | 1014.5 |
| 20260903202539 | 80 | 320 | 4.0 | 9.0 | 0.00 | 0.00 | 0.00 | 66 | 1014.5 |
| 20260903202039 | 81 | 310 | 3.0 | 9.0 | 0.00 | 0.00 | 0.00 | 66 | 1014.5 |
| 20260903201542 | 81 | 338 | 5.0 | 10.0 | 0.00 | 0.00 | 0.00 | 66 | 1014.5 |
| 20260903201039 | 81 | 326 | 4.0 | 8.0 | 0.00 | 0.00 | 0.00 | 66 | 1014.5 |
| 20260903200539 | 81 | 320 | 2.0 | 5.0 | 0.00 | 0.00 | 0.00 | 66 | 1014.5 |
| 20260903200039 | 81 | 304 | 2.0 | 6.0 | 0.00 | 0.00 | 0.00 | 66 | 1014.5 |
| 20260903195542 | 81 | 334 | 6.0 | 7.0 | 0.00 | 0.00 | 0.00 | 66 | 1014.5 |
| 20260903195042 | 81 | 322 | 3.0 | 5.0 | 0.00 | 0.00 | 0.00 | 66 | 1014.5 |
| 20260903194542 | 81 | 325 | 1.0 | 7.0 | 0.00 | 0.00 | 0.00 | 66 | 1014.5 |
| 20260903194042 | 81 | 323 | 2.0 | 4.0 | 0.00 | 0.00 | 0.00 | 66 | 1014.4 |
| 20260903193539 | 81 | 292 | 2.0 | 6.0 | 0.00 | 0.00 | 0.00 | 66 | 1014.5 |
| 20260903193039 | 82 | 297 | 3.0 | 6.0 | 0.00 | 0.00 | 0.00 | 66 | 1014.4 |
| 20260903192539 | 82 | 311 | 1.0 | 8.0 | 0.00 | 0.00 | 0.00 | 66 | 1014.4 |
| 20260903192042 | 82 | 283 | 2.0 | 4.0 | 0.00 | 0.00 | 0.00 | 66 | 1014.3 |
| 20260903191539 | 82 | 248 | 2.0 | 5.0 | 0.00 | 0.00 | 0.00 | 66 | 1014.2 |
| 20260903191039 | 82 | 327 | 3.0 | 6.0 | 0.00 | 0.00 | 0.00 | 66 | 1014.2 |
| 20260903190542 | 82 | 309 | 1.0 | 4.0 | 0.00 | 0.00 | 0.00 | 66 | 1014.2 |
| 20260903190042 | 82 | 314 | 3.0 | 3.0 | 0.00 | 0.00 | 0.00 | 66 | 1014.3 |
| 20260903185539 | 82 | 322 | 1.0 | 10.0 | 0.00 | 0.00 | 0.00 | 66 | 1014.3 |
| 20260903185039 | 82 | 321 | 4.0 | 5.0 | 0.00 | 0.00 | 0.00 | 66 | 1014.3 |
| 20260903184539 | 82 | 320 | 3.0 | 7.0 | 0.00 | 0.00 | 0.00 | 65 | 1014.3 |
| 20260903184039 | 82 | 304 | 2.0 | 9.0 | 0.00 | 0.00 | 0.00 | 65 | 1014.3 |
| 20260903183539 | 82 | 321 | 1.0 | 8.0 | 0.00 | 0.00 | 0.00 | 64 | 1014.2 |
| 20260903183039 | 83 | 319 | 1.0 | 13.0 | 0.00 | 0.00 | 0.00 | 64 | 1014.1 |
| 20260903182539 | 83 | 274 | 4.0 | 5.0 | 0.00 | 0.00 | 0.00 | 63 | 1014.1 |
| 20260903182047 | 83 | 290 | 1.0 | 7.0 | 0.00 | 0.00 | 0.00 | 63 | 1014.1 |
| 20260903181539 | 83 | 329 | 1.0 | 5.0 | 0.00 | 0.00 | 0.00 | 62 | 1014.0 |
| 20260903181039 | 83 | 322 | 2.0 | 4.0 | 0.00 | 0.00 | 0.00 | 61 | 1013.9 |
| 20260903180539 | 83 | 313 | 2.0 | 8.0 | 0.00 | 0.00 | 0.00 | 60 | 1013.8 |
| 20260903180039 | 83 | 254 | 4.0 | 8.0 | 0.00 | 0.00 | 0.00 | 60 | 1013.7 |
| 20260903175539 | 84 | 246 | 3.0 | 9.0 | 0.00 | 0.00 | 0.00 | 58 | 1013.7 |
| 20260903175039 | 84 | 348 | 2.0 | 9.0 | 0.00 | 0.00 | 0.00 | 57 | 1013.8 |
| 20260903174539 | 84 | 341 | 2.0 | 7.0 | 0.00 | 0.00 | 0.00 | 56 | 1013.9 |
| 20260903174039 | 84 | 183 | 3.0 | 9.0 | 0.00 | 0.00 | 0.00 | 57 | 1013.8 |
| 20260903173542 | 85 | 267 | 6.0 | 8.0 | 0.00 | 0.00 | 0.00 | 57 | 1013.8 |
| 20260903173039 | 85 | 273 | 7.0 | 7.0 | 0.00 | 0.00 | 0.00 | 56 | 1013.8 |
| 20260903172539 | 85 | 319 | 4.0 | 8.0 | 0.00 | 0.00 | 0.00 | 56 | 1013.8 |
| 20260903172039 | 85 | 265 | 2.0 | 8.0 | 0.00 | 0.00 | 0.00 | 57 | 1013.8 |
| 20260903171539 | 85 | 321 | 3.0 | 6.0 | 0.00 | 0.00 | 0.00 | 56 | 1013.8 |
| 20260903171042 | 86 | 246 | 3.0 | 7.0 | 0.00 | 0.00 | 0.00 | 55 | 1013.8 |
| 20260903170539 | 86 | 254 | 3.0 | 8.0 | 0.00 | 0.00 | 0.00 | 55 | 1013.8 |
| 20260903170039 | 86 | 94 | 2.0 | 8.0 | 0.00 | 0.00 | 0.00 | 55 | 1013.8 |
| 20260903165539 | 86 | 71 | 3.0 | 11.0 | 0.00 | 0.00 | 0.00 | 54 | 1013.8 |
| 20260903165039 | 87 | 105 | 6.0 | 10.0 | 0.00 | 0.00 | 0.00 | 53 | 1013.7 |
| 20260903164542 | 87 | 308 | 4.0 | 13.0 | 0.00 | 0.00 | 0.00 | 52 | 1013.7 |
| 20260903164042 | 87 | 338 | 6.0 | 11.0 | 0.00 | 0.00 | 0.00 | 51 | 1013.7 |
| 20260903163539 | 88 | 10 | 1.0 | 10.0 | 0.00 | 0.00 | 0.00 | 51 | 1013.7 |
| 20260903163039 | 88 | 279 | 2.0 | 13.0 | 0.00 | 0.00 | 0.00 | 50 | 1013.7 |
| 20260903162539 | 88 | 267 | 1.0 | 11.0 | 0.00 | 0.00 | 0.00 | 49 | 1013.7 |
| 20260903162039 | 88 | 153 | 2.0 | 15.0 | 0.00 | 0.00 | 0.00 | 49 | 1013.7 |
| 20260903161539 | 88 | 254 | 3.0 | 15.0 | 0.00 | 0.00 | 0.00 | 49 | 1013.7 |
| 20260903161039 | 88 | 270 | 2.0 | 10.0 | 0.00 | 0.00 | 0.00 | 50 | 1013.7 |
| 20260903160539 | 88 | 211 | 3.0 | 8.0 | 0.00 | 0.00 | 0.00 | 50 | 1013.6 |
| 20260903160039 | 88 | 5 | 1.0 | 8.0 | 0.00 | 0.00 | 0.00 | 52 | 1013.6 |
| 20260903155539 | 88 | 229 | 4.0 | 13.0 | 0.00 | 0.00 | 0.00 | 54 | 1013.7 |
| 20260903155039 | 88 | 280 | 3.0 | 7.0 | 0.00 | 0.00 | 0.00 | 54 | 1013.7 |
| 20260903154539 | 88 | 84 | 2.0 | 9.0 | 0.00 | 0.00 | 0.00 | 52 | 1013.7 |
| 20260903154042 | 89 | 86 | 3.0 | 8.0 | 0.00 | 0.00 | 0.00 | 50 | 1013.7 |
| 20260903153539 | 89 | 82 | 2.0 | 11.0 | 0.00 | 0.00 | 0.00 | 49 | 1013.6 |
| 20260903153039 | 89 | 111 | 2.0 | 8.0 | 0.00 | 0.00 | 0.00 | 48 | 1013.6 |
| 20260903152539 | 89 | 26 | 2.0 | 7.0 | 0.00 | 0.00 | 0.00 | 48 | 1013.6 |
| 20260903152042 | 89 | 30 | 1.0 | 9.0 | 0.00 | 0.00 | 0.00 | 50 | 1013.6 |
| 20260903151542 | 89 | 190 | 2.0 | 8.0 | 0.00 | 0.00 | 0.00 | 49 | 1013.6 |
| 20260903151042 | 89 | 257 | 4.0 | 10.0 | 0.00 | 0.00 | 0.00 | 46 | 1013.6 |
| 20260903150539 | 90 | 44 | 2.0 | 9.0 | 0.00 | 0.00 | 0.00 | 43 | 1013.6 |
| 20260903150039 | 90 | 194 | 4.0 | 11.0 | 0.00 | 0.00 | 0.00 | 41 | 1013.5 |
| 20260903145539 | 90 | 193 | 3.0 | 7.0 | 0.00 | 0.00 | 0.00 | 43 | 1013.6 |
| 20260903145039 | 90 | 5 | 3.0 | 7.0 | 0.00 | 0.00 | 0.00 | 44 | 1013.6 |
| 20260903144539 | 90 | 41 | 1.0 | 9.0 | 0.00 | 0.00 | 0.00 | 43 | 1013.6 |
| 20260903144042 | 90 | 209 | 3.0 | 12.0 | 0.00 | 0.00 | 0.00 | 43 | 1013.7 |
| 20260903143539 | 90 | 71 | 2.0 | 8.0 | 0.00 | 0.00 | 0.00 | 43 | 1013.7 |
| 20260903143042 | 90 | 213 | 4.0 | 7.0 | 0.00 | 0.00 | 0.00 | 44 | 1013.8 |
| 20260903142542 | 89 | 92 | 2.0 | 10.0 | 0.00 | 0.00 | 0.00 | 45 | 1013.7 |